Time,TemperatureF,DewpointF,PressureIn,WindDirection,WindDirectionDegrees,WindSpeedMPH,WindSpeedGustMPH,Humidity,HourlyPrecipIn,Conditions,Clouds,dailyrainin,SoftwareType,DateUTC
2013-05-02 00:06:00,63.5,54.0,30.18,SE,125,0.0,-999.0,70,-99.99,,,0.00,weatherlink.com 1.10,2013-05-02 04:06:00,
2013-05-02 00:21:00,62.8,53.0,30.18,ESE,123,0.0,-999.0,71,-99.99,,,0.00,weatherlink.com 1.10,2013-05-02 04:21:00,
2013-05-02 00:36:00,62.5,53.0,30.18,ESE,123,0.0,-999.0,72,-99.99,,,0.00,weatherlink.com 1.10,2013-05-02 04:36:00,
2013-05-02 00:51:00,61.9,53.0,30.18,ESE,123,0.0,-999.0,72,-99.99,,,0.00,weatherlink.com 1.10,2013-05-02 04:51:00,
2013-05-02 01:06:00,61.6,52.0,30.19,ESE,123,0.0,-999.0,72,-99.99,,,0.00,weatherlink.com 1.10,2013-05-02 05:06:00,
2013-05-02 01:21:00,61.1,52.0,30.19,ESE,123,0.0,-999.0,73,-99.99,,,0.00,weatherlink.com 1.10,2013-05-02 05:21:00,
2013-05-02 01:36:00,60.3,52.0,30.19,ESE,123,0.0,-999.0,74,-99.99,,,0.00,weatherlink.com 1.10,2013-05-02 05:36:00,
2013-05-02 01:51:00,59.3,52.0,30.18,ESE,123,0.0,-999.0,76,-99.99,,,0.00,weatherlink.com 1.10,2013-05-02 05:51:00,
2013-05-02 02:06:00,58.2,52.0,30.18,ESE,123,0.0,-999.0,79,-99.99,,,0.00,weatherlink.com 1.10,2013-05-02 06:06:00,
2013-05-02 02:22:00,57.3,52.0,30.18,ESE,123,0.0,-999.0,81,-99.99,,,0.00,weatherlink.com 1.10,2013-05-02 06:22:00,
2013-05-02 02:37:00,56.5,51.0,30.17,ESE,123,0.0,-999.0,83,-99.99,,,0.00,weatherlink.com 1.10,2013-05-02 06:37:00,
2013-05-02 02:52:00,55.8,51.0,30.17,ESE,123,0.0,-999.0,85,-99.99,,,0.00,weatherlink.com 1.10,2013-05-02 06:52:00,
2013-05-02 03:07:00,55.3,51.0,30.16,ESE,123,0.0,-999.0,85,-99.99,,,0.00,weatherlink.com 1.10,2013-05-02 07:07:00,
2013-05-02 03:22:00,54.7,51.0,30.17,ESE,123,0.0,-999.0,86,-99.99,,,0.00,weatherlink.com 1.10,2013-05-02 07:22:00,
2013-05-02 03:37:00,54.4,51.0,30.17,ESE,123,0.0,-999.0,87,-99.99,,,0.00,weatherlink.com 1.10,2013-05-02 07:37:00,
2013-05-02 03:52:00,54.3,51.0,30.17,ESE,123,0.0,-999.0,88,-99.99,,,0.00,weatherlink.com 1.10,2013-05-02 07:52:00,
2013-05-02 04:07:00,54.4,51.0,30.17,ESE,123,0.0,-999.0,88,-99.99,,,0.00,weatherlink.com 1.10,2013-05-02 08:07:00,
2013-05-02 04:22:00,54.7,52.0,30.17,ESE,123,0.0,-999.0,89,-99.99,,,0.00,weatherlink.com 1.10,2013-05-02 08:22:00,
2013-05-02 04:37:00,54.8,51.0,30.17,ESE,123,0.0,-999.0,88,-99.99,,,0.00,weatherlink.com 1.10,2013-05-02 08:37:00,
2013-05-02 04:52:00,54.8,51.0,30.18,ESE,123,0.0,-999.0,88,-99.99,,,0.00,weatherlink.com 1.10,2013-05-02 08:52:00,
2013-05-02 05:07:00,54.6,51.0,30.18,ESE,123,0.0,-999.0,88,-99.99,,,0.00,weatherlink.com 1.10,2013-05-02 09:07:00,
2013-05-02 05:22:00,54.1,51.0,30.18,ESE,123,0.0,-999.0,88,-99.99,,,0.00,weatherlink.com 1.10,2013-05-02 09:22:00,
2013-05-02 05:37:00,53.6,51.0,30.18,ESE,123,0.0,-999.0,89,-99.99,,,0.00,weatherlink.com 1.10,2013-05-02 09:37:00,
2013-05-02 05:52:00,53.3,51.0,30.18,ESE,123,0.0,-999.0,90,-99.99,,,0.00,weatherlink.com 1.10,2013-05-02 09:52:00,
2013-05-02 06:07:00,53.3,51.0,30.18,ESE,123,0.0,-999.0,90,-99.99,,,0.00,weatherlink.com 1.10,2013-05-02 10:07:00,
2013-05-02 06:22:00,53.5,51.0,30.19,ESE,123,0.0,-999.0,90,-99.99,,,0.00,weatherlink.com 1.10,2013-05-02 10:22:00,
2013-05-02 06:37:00,53.8,51.0,30.19,ESE,123,0.0,-999.0,90,-99.99,,,0.00,weatherlink.com 1.10,2013-05-02 10:37:00,
2013-05-02 06:52:00,54.3,51.0,30.18,ESE,123,0.0,-999.0,89,-99.99,,,0.00,weatherlink.com 1.10,2013-05-02 10:52:00,
2013-05-02 07:07:00,54.8,51.0,30.19,ESE,123,0.0,-999.0,88,-99.99,,,0.00,weatherlink.com 1.10,2013-05-02 11:07:00,
2013-05-02 07:22:00,55.4,52.0,30.19,ESE,123,0.0,-999.0,87,-99.99,,,0.00,weatherlink.com 1.10,2013-05-02 11:22:00,
2013-05-02 07:37:00,56.4,52.0,30.19,ESE,123,0.0,-999.0,85,-99.99,,,0.00,weatherlink.com 1.10,2013-05-02 11:37:00,
2013-05-02 07:52:00,57.6,53.0,30.20,SE,130,0.0,-999.0,83,-99.99,,,0.00,weatherlink.com 1.10,2013-05-02 11:52:00,
2013-05-02 08:07:00,59.3,53.0,30.21,SE,130,0.0,-999.0,80,-99.99,,,0.00,weatherlink.com 1.10,2013-05-02 12:07:00,
2013-05-02 08:22:00,61.0,53.0,30.21,SE,130,0.0,-999.0,75,-99.99,,,0.00,weatherlink.com 1.10,2013-05-02 12:22:00,
2013-05-02 08:37:00,62.3,54.0,30.21,SE,130,2.0,-999.0,75,-99.99,,,0.00,weatherlink.com 1.10,2013-05-02 12:37:00,
2013-05-02 08:52:00,63.5,54.0,30.22,ESE,117,0.0,-999.0,71,-99.99,,,0.00,weatherlink.com 1.10,2013-05-02 12:52:00,
2013-05-02 09:07:00,64.9,54.0,30.23,ESE,121,5.0,-999.0,69,-99.99,,,0.00,weatherlink.com 1.10,2013-05-02 13:07:00,
2013-05-02 09:22:00,64.8,54.0,30.23,ESE,123,4.0,-999.0,67,-99.99,,,0.00,weatherlink.com 1.10,2013-05-02 13:22:00,
2013-05-02 09:37:00,65.3,54.0,30.23,SE,137,2.0,-999.0,68,-99.99,,,0.00,weatherlink.com 1.10,2013-05-02 13:37:00,
2013-05-02 09:52:00,65.9,54.0,30.23,South,173,0.0,-999.0,66,-99.99,,,0.00,weatherlink.com 1.10,2013-05-02 13:52:00,
2013-05-02 10:07:00,66.1,55.0,30.23,SE,146,0.0,-999.0,67,-99.99,,,0.00,weatherlink.com 1.10,2013-05-02 14:07:00,
2013-05-02 10:22:00,66.3,55.0,30.23,ESE,113,2.0,-999.0,66,-99.99,,,0.00,weatherlink.com 1.10,2013-05-02 14:22:00,
2013-05-02 10:37:00,67.2,54.0,30.23,SE,130,1.0,-999.0,63,-99.99,,,0.00,weatherlink.com 1.10,2013-05-02 14:37:00,
2013-05-02 10:53:00,68.3,56.0,30.23,ESE,109,1.0,-999.0,64,-99.99,,,0.00,weatherlink.com 1.10,2013-05-02 14:53:00,
2013-05-02 11:08:00,68.7,55.0,30.23,ESE,120,6.0,-999.0,63,-99.99,,,0.00,weatherlink.com 1.10,2013-05-02 15:08:00,
2013-05-02 11:23:00,68.8,56.0,30.23,East,98,1.0,-999.0,63,-99.99,,,0.00,weatherlink.com 1.10,2013-05-02 15:23:00,
2013-05-02 11:38:00,69.4,56.0,30.23,ENE,68,1.0,-999.0,62,-99.99,,,0.00,weatherlink.com 1.10,2013-05-02 15:38:00,
2013-05-02 11:53:00,71.5,56.0,30.23,ESE,118,0.0,-999.0,59,-99.99,,,0.00,weatherlink.com 1.10,2013-05-02 15:53:00,
2013-05-02 12:08:00,71.9,55.0,30.22,ENE,74,0.0,-999.0,56,-99.99,,,0.00,weatherlink.com 1.10,2013-05-02 16:08:00,
2013-05-02 12:23:00,72.4,55.0,30.22,East,91,4.0,-999.0,55,-99.99,,,0.00,weatherlink.com 1.10,2013-05-02 16:23:00,
2013-05-02 12:38:00,73.0,55.0,30.21,SE,126,2.0,-999.0,53,-99.99,,,0.00,weatherlink.com 1.10,2013-05-02 16:38:00,
2013-05-02 12:53:00,73.4,56.0,30.21,SE,132,8.0,-999.0,55,-99.99,,,0.00,weatherlink.com 1.10,2013-05-02 16:53:00,
2013-05-02 13:08:00,73.0,56.0,30.21,ENE,69,0.0,-999.0,55,-99.99,,,0.00,weatherlink.com 1.10,2013-05-02 17:08:00,
2013-05-02 13:23:00,73.5,54.0,30.20,East,84,0.0,-999.0,51,-99.99,,,0.00,weatherlink.com 1.10,2013-05-02 17:23:00,
2013-05-02 13:38:00,73.4,56.0,30.20,SE,133,0.0,-999.0,54,-99.99,,,0.00,weatherlink.com 1.10,2013-05-02 17:38:00,
2013-05-02 13:53:00,73.9,56.0,30.20,ESE,117,0.0,-999.0,54,-99.99,,,0.00,weatherlink.com 1.10,2013-05-02 17:53:00,
2013-05-02 14:08:00,74.4,55.0,30.20,SE,135,4.0,-999.0,51,-99.99,,,0.00,weatherlink.com 1.10,2013-05-02 18:08:00,
2013-05-02 14:23:00,74.1,55.0,30.19,ENE,74,1.0,-999.0,52,-99.99,,,0.00,weatherlink.com 1.10,2013-05-02 18:23:00,
2013-05-02 14:38:00,74.6,55.0,30.19,East,97,0.0,-999.0,51,-99.99,,,0.00,weatherlink.com 1.10,2013-05-02 18:38:00,
2013-05-02 14:53:00,74.4,54.0,30.19,ENE,78,6.0,-999.0,49,-99.99,,,0.00,weatherlink.com 1.10,2013-05-02 18:53:00,
2013-05-02 15:08:00,75.1,55.0,30.18,ENE,69,1.0,-999.0,50,-99.99,,,0.00,weatherlink.com 1.10,2013-05-02 19:08:00,
2013-05-02 15:23:00,75.2,55.0,30.18,East,83,5.0,-999.0,49,-99.99,,,0.00,weatherlink.com 1.10,2013-05-02 19:23:00,
2013-05-02 15:38:00,75.2,56.0,30.17,East,99,0.0,-999.0,51,-99.99,,,0.00,weatherlink.com 1.10,2013-05-02 19:38:00,
2013-05-02 15:53:00,75.2,54.0,30.17,ESE,116,2.0,-999.0,48,-99.99,,,0.00,weatherlink.com 1.10,2013-05-02 19:53:00,
2013-05-02 16:08:00,75.0,53.0,30.16,ESE,116,0.0,-999.0,47,-99.99,,,0.00,weatherlink.com 1.10,2013-05-02 20:08:00,
2013-05-02 16:23:00,75.2,54.0,30.16,ESE,117,0.0,-999.0,48,-99.99,,,0.00,weatherlink.com 1.10,2013-05-02 20:23:00,
2013-05-02 16:38:00,75.7,55.0,30.16,SSE,149,2.0,-999.0,49,-99.99,,,0.00,weatherlink.com 1.10,2013-05-02 20:38:00,
2013-05-02 16:53:00,76.7,55.0,30.15,South,190,0.0,-999.0,48,-99.99,,,0.00,weatherlink.com 1.10,2013-05-02 20:53:00,
2013-05-02 17:08:00,77.0,55.0,30.15,SSE,161,6.0,-999.0,47,-99.99,,,0.00,weatherlink.com 1.10,2013-05-02 21:08:00,
2013-05-02 17:23:00,76.6,53.0,30.15,SE,125,1.0,-999.0,44,-99.99,,,0.00,weatherlink.com 1.10,2013-05-02 21:23:00,
2013-05-02 17:38:00,77.0,53.0,30.14,South,181,0.0,-999.0,43,-99.99,,,0.00,weatherlink.com 1.10,2013-05-02 21:38:00,
2013-05-02 17:53:00,76.9,54.0,30.14,South,182,0.0,-999.0,46,-99.99,,,0.00,weatherlink.com 1.10,2013-05-02 21:53:00,
2013-05-02 18:08:00,76.6,54.0,30.14,SE,127,4.0,-999.0,45,-99.99,,,0.00,weatherlink.com 1.10,2013-05-02 22:08:00,
2013-05-02 18:23:00,76.8,55.0,30.12,ESE,122,0.0,-999.0,47,-99.99,,,0.00,weatherlink.com 1.10,2013-05-02 22:23:00,
2013-05-02 18:38:00,77.2,54.0,30.12,ESE,121,2.0,-999.0,45,-99.99,,,0.00,weatherlink.com 1.10,2013-05-02 22:38:00,
2013-05-02 18:53:00,76.9,53.0,30.12,ESE,104,0.0,-999.0,43,-99.99,,,0.00,weatherlink.com 1.10,2013-05-02 22:53:00,
2013-05-02 19:08:00,76.4,55.0,30.11,ESE,104,0.0,-999.0,48,-99.99,,,0.00,weatherlink.com 1.10,2013-05-02 23:08:00,
2013-05-02 19:23:00,76.4,54.0,30.11,ESE,104,0.0,-999.0,46,-99.99,,,0.00,weatherlink.com 1.10,2013-05-02 23:23:00,
2013-05-02 19:38:00,75.9,57.0,30.11,ESE,104,0.0,-999.0,52,-99.99,,,0.00,weatherlink.com 1.10,2013-05-02 23:38:00,
2013-05-02 19:53:00,74.9,58.0,30.11,ESE,104,0.0,-999.0,55,-99.99,,,0.00,weatherlink.com 1.10,2013-05-02 23:53:00,
2013-05-02 20:08:00,73.5,59.0,30.11,ESE,104,0.0,-999.0,61,-99.99,,,0.00,weatherlink.com 1.10,2013-05-03 00:08:00,
2013-05-02 20:24:00,71.5,59.0,30.11,ESE,104,0.0,-999.0,65,-99.99,,,0.00,weatherlink.com 1.10,2013-05-03 00:24:00,
2013-05-02 20:39:00,69.5,58.0,30.11,ESE,104,0.0,-999.0,67,-99.99,,,0.00,weatherlink.com 1.10,2013-05-03 00:39:00,
2013-05-02 20:54:00,68.1,58.0,30.11,ESE,104,0.0,-999.0,69,-99.99,,,0.00,weatherlink.com 1.10,2013-05-03 00:54:00,
2013-05-02 21:09:00,66.9,57.0,30.11,ESE,104,0.0,-999.0,71,-99.99,,,0.00,weatherlink.com 1.10,2013-05-03 01:09:00,
2013-05-02 21:24:00,66.0,57.0,30.12,ESE,104,0.0,-999.0,72,-99.99,,,0.00,weatherlink.com 1.10,2013-05-03 01:24:00,
2013-05-02 21:39:00,65.1,57.0,30.12,ESE,104,0.0,-999.0,75,-99.99,,,0.00,weatherlink.com 1.10,2013-05-03 01:39:00,
2013-05-02 21:54:00,64.3,57.0,30.12,ESE,104,0.0,-999.0,76,-99.99,,,0.00,weatherlink.com 1.10,2013-05-03 01:54:00,
2013-05-02 22:09:00,64.0,57.0,30.12,ESE,104,0.0,-999.0,79,-99.99,,,0.00,weatherlink.com 1.10,2013-05-03 02:09:00,
2013-05-02 22:24:00,64.0,57.0,30.12,ESE,104,0.0,-999.0,79,-99.99,,,0.00,weatherlink.com 1.10,2013-05-03 02:24:00,
2013-05-02 22:39:00,64.0,57.0,30.12,ESE,104,0.0,-999.0,79,-99.99,,,0.00,weatherlink.com 1.10,2013-05-03 02:39:00,
2013-05-02 22:54:00,63.8,58.0,30.12,ESE,104,0.0,-999.0,80,-99.99,,,0.00,weatherlink.com 1.10,2013-05-03 02:54:00,
2013-05-02 23:09:00,63.2,57.0,30.11,ESE,104,0.0,-999.0,80,-99.99,,,0.00,weatherlink.com 1.10,2013-05-03 03:09:00,
2013-05-02 23:24:00,62.5,57.0,30.11,ESE,104,0.0,-999.0,82,-99.99,,,0.00,weatherlink.com 1.10,2013-05-03 03:24:00,
2013-05-02 23:39:00,61.8,57.0,30.12,ESE,104,1.0,-999.0,83,-99.99,,,0.00,weatherlink.com 1.10,2013-05-03 03:39:00,
2013-05-02 23:54:00,62.7,56.0,30.12,ESE,111,0.0,-999.0,80,-99.99,,,0.00,weatherlink.com 1.10,2013-05-03 03:54:00,